Regional Weather Roundup
Issued by NWS

Home | Current Version | Previous Version | Text Only | Print | Product List | Glossary On
Versions: 1 2 3 4 5 6 7 8 9 10 11 12 13 14 15 16 17 18 19 20 21 22 23 24 25 26 27 28 29 30 31 32 33 34 35 36 37 38 39 40 41 42 43 44 45 46 47 48 49 50
000
ASUS45 KCYS 091910
RWRWY

WYOMING REGIONAL WEATHER ROUNDUP
NATIONAL WEATHER SERVICE CHEYENNE WY
100 PM MDT THU JUL 09 2020

NOTE:  "FAIR" INDICATES FEW OR NO CLOUDS BELOW 12,000 FEET
WITH NO SIGNIFICANT WEATHER AND/OR OBSTRUCTIONS TO VISIBILITY.

WYZ001-092000-
YELLOWSTONE NATIONAL PARK

CITY           SKY/WX    TMP DP  RH WIND       PRES   REMARKS
LK YELLOWSTONE   N/A     68  29  23 MISG      30.22S
W YELLOWSTONE  NOT AVBL

$$
WYZ002>013-054>058-071-098>099-092000-
NORTHERN WYOMING

CITY           SKY/WX    TMP DP  RH WIND       PRES   REMARKS
JACKSON        FAIR      71  44  37 VRB3      30.13F
CODY           FAIR      78  40  25 E9G18     30.04F
GREYBULL       FAIR      82  39  21 S8        29.98F
WORLAND        FAIR      82  41  23 MISG      29.99F
SHERIDAN       FAIR      85  44  23 VRB5      29.99F
BUFFALO        FAIR      82  43  25 SE12G20   30.04F
GILLETTE       FAIR      80  52  37 VRB6G17   30.02F
HULETT         FAIR      79  52  38 NW7       30.05F
NEWCASTLE      FAIR      81  45  28 S9        30.04F

$$
WYZ014>020-022>026-101>103-092000-
CENTRAL WYOMING

CITY           SKY/WX    TMP DP  RH WIND       PRES   REMARKS
BIG PINEY      FAIR      76  29  17 S8        30.18F
PINEDALE       FAIR      72  30  21 E6        30.21
DUBOIS         FAIR      68  34  28 NE3       30.18
LANDER         FAIR      79  39  23 VRB5      30.07F
RIVERTON       FAIR      76  34  21 SW6       30.08F
CASPER         FAIR      81  41  24 SW9       30.07F
DOUGLAS        FAIR      80  49  33 W6        30.06F

$$
WYZ021-027>030-104>119-092000-
SOUTHERN WYOMING

CITY           SKY/WX    TMP DP  RH WIND       PRES   REMARKS
EVANSTON       FAIR      78  28  16 SW15G24   30.17F
KEMMERER       FAIR      77  23  13 S5G10     30.20
ROCK SPRINGS   FAIR      82  23  11 VRB5      30.13F
DIXON          FAIR      81  23  12 SE14G20   30.16F
RAWLINS        FAIR      81  21  11 CALM      30.17F
SARATOGA       FAIR      79  21  11 N8        30.19F
LARAMIE        FAIR      81  18   9 VRB5G17   30.18F
CHEYENNE       FAIR      82  48  30 NE5       30.13F
TORRINGTON     FAIR      83  53  35 MISG      30.02F
PINE BLUFFS    FAIR      79  46  31 E7        30.10S

$$




USA.gov is the U.S. government's official web portal to all federal, state and local government web resources and services.